Location: Kellogg
(38.0159°N, 90.0546°W)
Time: 23:04:34
(UTC+00:00)

Explorer 7 - Visible Passes

Search period start: 11 September 2024 00:00
Search period end: 21 September 2024 00:00
Orbit: 462 x 610 km, 50.3° (Epoch: 11 September)

Date Brightness Start Highest point End Pass type
(mag) Time Alt. Az. Time Alt. Az. Time Alt. Az.
11 Sep 9.1 09:00:00 20° ENE 09:00:00 20° ENE 09:01:15 10° ENE visible
11 Sep 8.1 10:35:23 16° WNW 10:37:18 24° NNW 10:40:19 10° NNE visible
12 Sep 9.5 08:50:31 15° NE 08:50:31 15° NE 08:51:17 10° NE visible
12 Sep 8.3 10:25:53 16° NW 10:27:23 21° NNW 10:30:12 10° NNE visible
13 Sep 9.8 08:40:56 12° NE 08:40:56 12° NE 08:41:14 10° NE visible
13 Sep 8.5 10:16:18 16° NW 10:17:27 18° NNW 10:20:03 10° NNE visible
14 Sep 8.6 10:06:39 15° NNW 10:07:28 16° NNW 10:09:53 10° NNE visible
15 Sep 8.8 09:56:56 15° NNW 09:57:28 15° NNW 09:59:39 10° NNE visible
16 Sep 9.0 09:47:11 14° NNW 09:47:25 14° NNW 09:49:25 10° NNE visible
17 Sep 9.1 09:37:23 13° N 09:37:23 13° N 09:39:09 10° NNE visible
17 Sep 9.1 11:15:56 10° NNW 11:18:00 14° NNE 11:20:05 10° NE visible
18 Sep 9.3 09:27:34 12° N 09:27:34 12° N 09:28:53 10° NNE visible
18 Sep 9.0 11:05:34 10° NNW 11:07:52 16° NNE 11:10:10 10° NE visible
19 Sep 9.4 09:17:45 12° N 09:17:45 12° N 09:18:38 10° NNE visible
19 Sep 9.0 10:55:09 10° NNW 10:57:41 17° NNE 11:00:11 10° ENE visible
20 Sep 9.6 09:07:56 11° NNE 09:07:56 11° NNE 09:08:24 10° NNE visible
20 Sep 8.8 10:44:41 10° NNW 10:47:26 20° NNE 10:50:08 10° ENE visible
